TimeMDT,TemperatureF,Dew PointF,Humidity,Sea Level PressureIn,VisibilityMPH,Wind Direction,Wind SpeedMPH,Gust SpeedMPH,PrecipitationIn,Events,Conditions,WindDirDegrees,DateUTC
12:53 AM,64.0,19.0,18,29.66,10.0,South,10.4,-,N/A,,Clear,180,2012-05-10 06:53:00
1:53 AM,63.0,18.0,18,29.65,10.0,SSW,11.5,-,N/A,,Clear,210,2012-05-10 07:53:00
2:53 AM,55.9,37.9,51,29.70,10.0,SW,24.2,31.1,N/A,,Clear,230,2012-05-10 08:53:00
3:53 AM,50.0,36.0,59,29.75,10.0,WSW,24.2,35.7,N/A,,Clear,240,2012-05-10 09:53:00
4:53 AM,48.0,30.0,50,29.78,10.0,SW,20.7,31.1,N/A,,Clear,230,2012-05-10 10:53:00
5:53 AM,46.0,26.1,46,29.82,10.0,SW,18.4,29.9,N/A,,Clear,220,2012-05-10 11:53:00
6:53 AM,44.1,23.0,43,29.86,8.0,SW,23.0,31.1,N/A,,Clear,220,2012-05-10 12:53:00
7:53 AM,46.9,24.1,41,29.91,7.0,SW,24.2,39.1,N/A,,Clear,220,2012-05-10 13:53:00
8:53 AM,45.0,24.1,44,29.95,7.0,WSW,35.7,48.3,N/A,,Mostly Cloudy,250,2012-05-10 14:53:00
9:53 AM,46.9,26.1,44,29.99,10.0,WSW,29.9,38.0,N/A,,Mostly Cloudy,250,2012-05-10 15:53:00
10:53 AM,45.0,25.0,46,29.99,10.0,SW,23.0,31.1,N/A,,Mostly Cloudy,220,2012-05-10 16:53:00
11:53 AM,48.0,24.1,39,30.00,10.0,SW,24.2,31.1,N/A,,Partly Cloudy,230,2012-05-10 17:53:00
12:53 PM,55.9,27.0,33,29.98,10.0,SW,16.1,26.5,N/A,,Clear,230,2012-05-10 18:53:00
1:53 PM,59.0,24.1,26,29.97,10.0,WSW,18.4,27.6,N/A,,Clear,240,2012-05-10 19:53:00
2:53 PM,60.1,19.9,21,29.98,10.0,SW,23.0,31.1,N/A,,Clear,220,2012-05-10 20:53:00
3:53 PM,61.0,19.0,20,29.98,10.0,SW,19.6,28.8,N/A,,Partly Cloudy,230,2012-05-10 21:53:00
4:53 PM,62.6,17.6,18,30.03,10.0,WSW,18.4,26.5,N/A,,Partly Cloudy,240,2012-05-10 22:53:00
5:53 PM,61.0,16.0,17,29.96,10.0,WSW,17.3,24.2,N/A,,Partly Cloudy,240,2012-05-10 23:53:00
6:53 PM,60.1,18.0,20,29.96,10.0,WSW,15.0,-,N/A,,Clear,240,2012-05-11 00:53:00
7:53 PM,55.9,18.0,23,29.96,10.0,SW,17.3,24.2,N/A,,Clear,230,2012-05-11 01:53:00
8:53 PM,51.1,21.0,31,29.99,10.0,SW,11.5,-,N/A,,Clear,220,2012-05-11 02:53:00
9:53 PM,48.9,18.0,29,30.03,10.0,SW,19.6,-,N/A,,Clear,230,2012-05-11 03:53:00
10:53 PM,44.1,16.0,32,30.07,10.0,SSW,12.7,-,N/A,,Clear,210,2012-05-11 04:53:00
11:53 PM,46.0,14.0,28,30.06,10.0,SSW,15.0,-,N/A,,Clear,210,2012-05-11 05:53:00